DECAYED

NOAA 16 DEB, 41213 (Decayed)

Orbit data source: Space-Track

NOAA 16 DEB, 41213 was space debris in SSO originally from a launch on Thu, 21 Sep 2000 UTC launched from the Air Force Western Test Range (AFWTR). Debris objects in space refer to the collection of defunct objects orbiting the Earth. Examples of debris include non-operational satellites, rocket bodies, and fragments generated from explosions, collisions, or faulty payload assembly.

Loading next visibility...
Identifier
41213, 2000-055DS
Orbit
Decayed
Country
Flag of USUS
Related business
Manufacturer
Unknown
Mission
Decayed spacecraft
Bus & Motor
Unknown
Mass
Unknown
Launch date (UTC)
2000-09-21 (26 years ago)
Launch vehicle
Unknown
Launch site
Air Force Western Test Range (AFWTR)
Object type
Payload
Rocket body
Debris
Shape & HBR
Unknown shape, 0.1 m
Radar Cross Section
Medium (>0.1 m² and <1 m²)

Expand to show TLE details & history
Last TLE update: 3 months ago

TLE from 3 months ago
0 NOAA 16 DEB
1 41213U 00055DS  26123.11425620  .03558090  00000-0  20560-1 0  9990
2 41213  98.9467   5.5796 0010830 176.4422 183.6917 15.74936291542526
Epoch: 2026-05-03T02:44Z
TLE epoch observation values (Epoch: 2026-05-03T02:44:31.735Z)
Latitude
-0.00002°
Longitude
103.42492°
Altitude
355.195 km
Speed
7.692 km/s
True Right ascension
00h 22m 19s
True Declination
0° 00' 00"
Sunlit
Object was in daylight at epoch
Visualization orbit readout
Latitude
Unknown
Longitude
Unknown
Altitude
Unknown
Speed
Unknown
Apparent Right ascension
Unknown
Apparent Declination
Unknown
Sunlit
N/A
Visualization observer readout
Local Sidereal Time
23:37:01
Azimuth
Unknown
Elevation
Unknown
Doppler factor
Unknown
Orbital elements
Apogee altitude
349.057 km
Perigee altitude
334.502 km
Semi-major axis
6,719.917 km
Eccentricity
0.00108
Inclination
98.9467°
RAAN
5.5796°
Arg. of periapsis
176.4422°
True anomaly
183.68372°
Mean anomaly
183.6917°
Eccentric anomaly
183.68771°
Mean motion
3.94001 °/min
Orbital period
91.37 mins
BSTAR
0.02056
Loading maneuver chart data...
Computing Atmospheric mass density...
Loading historical data...
Loading historical data...
Loading historical data...
Loading historical data...
Loading historical data...
Loading historical data...
Loading historical data...

Documentation

Showing up to 5 results
|